Meteo Giornale » Osservazioni meteo Italia » Rimini

ore: 15:20 - Osservazioni Meteo Rimini
Lat. 44° 2' N Lon. 12° 37' E Alt. 12 metri s.l.m.

coperto_pioggia Europe/Rome

18 °C

Pioggia Debole

Temp. 24 Ore

16 °C

21 °C

Est

16.7 Km/h

Dew point 16 °C

Umidità 88 %

Visibilità  10 Km

Il sole sorge alle ore 05:31

Il sole tramonta alle ore 20:41

Data e Ora Cielo e Fenomeni T °C DP °C Um. % Pres. hPa Vis. km Vento km/h
Oggi h: 15:20 coperto_pioggia Pioggia Debole 18 16 88 1012 10 E 16.7
Oggi h: 14:50 coperto_pioggia Pioggia Debole 17 16 93 1013 10 E 14.8
Oggi h: 14:20 coperto_pioggia Pioggia Debole 17 15 88 1013 6 E/NE 16.7
Oggi h: 13:50 nuvoloso_piovaschi Debole Rovescio di Pioggia 18 15 82 1013 6 E/NE 20.3
Oggi h: 13:20 coperto_pioggia Pioggia Debole 18 16 88 1013 10 E/NE 13
Oggi h: 12:50 nuvoloso Nuvoloso 19 16 82 1013 10 E/NE 13
Oggi h: 12:20 nuvoloso Nuvoloso 18 17 93 1013 10 N/NE 11.1
Oggi h: 11:50 coperto_pioggia Pioggia Debole 17 16 93 1013 6 N 9.3
Oggi h: 11:20 coperto_pioggia Pioggia Debole 17 16 93 1013 6 N 3.7
Oggi h: 10:50 coperto_pioggia Pioggia Debole 17 16 93 1014 6 O/NO 9.3
Oggi h: 10:20 coperto_pioggia Pioggia Debole 17 16 93 1014 6 O 11.1
Oggi h: 09:50 coperto_pioggia Pioggia Debole 17 15 88 1014 6 O/NO 7.4
Oggi h: 09:20 coperto_pioggia Pioggia 17 15 88 1014 6 O/NO 9.3
Oggi h: 08:50 coperto_pioggia Pioggia Debole 17 15 88 1013 10 O 11.1
Oggi h: 08:20 coperto_pioggia Pioggia Debole 17 15 88 1013 10 O/NO 14.8
Oggi h: 07:50 coperto_pioggia Pioggia Debole 17 15 88 1013 10 O/NO 13
Oggi h: 07:20 coperto_pioggia Pioggia Debole 16 14 87 1013 10 O 7.4
Oggi h: 06:50 coperto_pioggia Pioggia Debole 16 14 87 1013 10 O 7.4
Oggi h: 05:50 coperto_pioggia Pioviggine 17 14 82 1013 10 O 9.3
Oggi h: 05:20 molto_nuvoloso Molto Nuvoloso 17 14 82 1013 10 O 9.3
Oggi h: 04:50 molto_nuvoloso Molto Nuvoloso 17 14 82 1013 10 O 11.1
Oggi h: 04:20 molto_nuvoloso Molto Nuvoloso 17 14 82 1013 10 O 9.3
Oggi h: 03:50 nuvoloso Nuvoloso 17 13 77 1013 10 O/SO 9.3
Oggi h: 03:20 coperto Coperto 17 13 77 1013 10 O 13
Oggi h: 02:50 molto_nuvoloso Molto Nuvoloso 17 14 82 1013 10 O 16.7
Oggi h: 02:20 molto_nuvoloso Molto Nuvoloso 18 14 77 1013 10 O 18.5
Oggi h: 01:50 molto_nuvoloso Molto Nuvoloso 18 15 82 1014 10 O 16.7
Oggi h: 01:20 coperto Coperto 17 15 88 1014 10 O/SO 7.4
Oggi h: 00:50 coperto Coperto 17 14 82 1014 10 N 5.5
Oggi h: 00:20 molto_nuvoloso Molto Nuvoloso 18 15 82 1014 10 N 3.7
Ieri h: 23:50 molto_nuvoloso Molto Nuvoloso 18 14 77 1014 10 N 1.8
Ieri h: 23:20 molto_nuvoloso Molto Nuvoloso 18 14 77 1014 10 N 3.7
Ieri h: 22:50 sereno Sereno 18 14 77 1014 10 N 3.7
Ieri h: 22:20 sereno Sereno 19 14 72 1014 10 N 3.7
Ieri h: 21:50 sereno Sereno 19 14 72 1013 10 N 3.7
Ieri h: 21:20 poco_nuvoloso Poco Nuvoloso 19 14 72 1013 10 N 5.5
Ieri h: 20:50 poco_nuvoloso Poco Nuvoloso 19 13 68 1013 10 E/SE 7.4
Ieri h: 20:20 poco_nuvoloso Poco Nuvoloso 20 13 64 1013 10 N 5.5
Ieri h: 19:50 nuvoloso Nuvoloso 20 12 59 1013 10 E 9.3
Ieri h: 19:20 nuvoloso Nuvoloso 21 13 60 1013 10 N 5.5
Ieri h: 18:20 nuvoloso Nuvoloso 21 13 60 1013 10 S 9.3
Ieri h: 17:50 nuvoloso Nuvoloso 20 13 64 1013 10 S 11.1
Ieri h: 17:20 nuvoloso Nuvoloso 20 13 64 1013 10 S/SE 9.3
Ieri h: 16:50 nuvoloso Nuvoloso 20 16 77 1013 10 E/SE 11.1
Ieri h: 16:20 coperto_temporali Temporale 20 15 72 1013 10 E 14.8
Ieri h: 15:50 coperto_temporali Temporale 20 16 77 1013 10 E 16.7